Location: *
(32.3758°S, 63.1185°E)
Time: 23:20:48
(UTC+00:00)

CZ-4B R/B - Pass Details

Date: 02 June 2023
Orbit: 489 x 620 km, 97.9° (Epoch: 03 October)

Event Time Altitude Azimuth Distance (km) Brightness Sun altitude
Rises 13:33:13 0° 165° (SSE) 2,600 6.9 -9.2°
Reaches altitude 10° 13:35:18 10° 162° (SSE) 1,714 6.0 -9.6°
Maximum altitude 13:38:57 66° 79° (E) 556 3.6 -10.4°
Drops below altitude 10° 13:42:38 10° 356° (N) 1,728 6.7 -11.1°
Sets 13:44:45 0° 353° (N) 2,624 7.7 -11.5°
